User: anonymous   Login
Location: Famechon
(49.7599°N, 2.0615°E)
Time: 19:37:37
(UTC+00:00)
Language:

NOAA 16 DEB - Orbit

View from above orbital plane
View from above orbital plane
View from above satellite
View from above satellite

Ground track
Ground track

The orbit data is extracted from the following two-line orbital elements,

1 41136U 00055BT  24062.47164740  .00015086  00000-0  41133-2 0  9996
2 41136  99.0867 298.2072 0038340  20.1041 340.1649 14.47022460430062
Epoch (UTC): 02 March 2024 11:19:10
Eccentricity: 0.0038340
inclination: 99.0867°
perigee height: 708 km
apogee height: 762 km
right ascension of ascending node: 298.2072°
argument of perigee: 20.1041°
revolutions per day: 14.47022460
mean anomaly at epoch: 340.1649°
orbit number at epoch: 43006

The dashed part of the orbit path shows where the satellite is in the earth's shadow,  

DLR